This is the latest recevied weather packets stored in our database for station/object PA1CG-7. If no packets are shown the sender has not sent any weather packets the latest 10 day(s).
| Time | Temp. | Humidity | Pressure | Rain* | Wind** | Luminosity | Snow |
|---|---|---|---|---|---|---|---|
| 1777467255 | 19.44° C | 35% | 1025.7 hPa | 0 mm | - | - | - |
| 1777466655 | 19.44° C | 36% | 1025.9 hPa | 0 mm | - | - | - |
| 1777466056 | 18.89° C | 36% | 1025.9 hPa | 0 mm | - | - | - |
| 1777465456 | 18.89° C | 37% | 1025.9 hPa | 0 mm | - | - | - |
| 1777464856 | 18.89° C | 36% | 1026.1 hPa | 0 mm | - | - | - |
| 1777464256 | 18.89° C | 37% | 1026.1 hPa | 0 mm | - | - | - |
| 1777463656 | 18.89° C | 38% | 1026.2 hPa | 0 mm | - | - | - |
| 1777463055 | 18.89° C | 37% | 1026.1 hPa | 0 mm | - | - | - |
| 1777462455 | 18.89° C | 37% | 1026.4 hPa | 0 mm | - | - | - |
| 1777461856 | 18.89° C | 39% | 1026.2 hPa | 0 mm | - | - | - |
| 1777461256 | 18.33° C | 38% | 1026.2 hPa | 0 mm | - | - | - |
| 1777460656 | 18.33° C | 40% | 1026.4 hPa | 0 mm | - | - | - |
| 1777460056 | 18.33° C | 40% | 1026.2 hPa | 0 mm | - | - | - |
| 1777459455 | 18.33° C | 41% | 1026.3 hPa | 0 mm | - | - | - |
| 1777458857 | 17.78° C | 43% | 1026.3 hPa | 0 mm | - | - | - |
| 1777458257 | 17.78° C | 42% | 1026.4 hPa | 0 mm | - | - | - |
| 1777457657 | 17.22° C | 42% | 1026.5 hPa | 0 mm | - | - | - |
| 1777457057 | 17.22° C | 43% | 1026.6 hPa | 0 mm | - | - | - |
| 1777456457 | 16.67° C | 43% | 1026.6 hPa | 0 mm | - | - | - |
| 1777455857 | 16.11° C | 46% | 1026.6 hPa | 0 mm | - | - | - |
| 1777455257 | 16.11° C | 45% | 1026.6 hPa | 0 mm | - | - | - |
| 1777454657 | 15.56° C | 45% | 1026.7 hPa | 0 mm | - | - | - |
| 1777454057 | 15.56° C | 46% | 1026.7 hPa | 0 mm | - | - | - |
| 1777453457 | 15.56° C | 46% | 1026.9 hPa | 0 mm | - | - | - |
| 1777452857 | 15° C | 47% | 1026.9 hPa | 0 mm | - | - | - |
* Rain latest hour (hover to see other rain measurements)
** Current wind speed in m/s (hover to see current wind gust speed)